TimeEDT,TemperatureF,Dew PointF,Humidity,Sea Level PressureIn,VisibilityMPH,Wind Direction,Wind SpeedMPH,Gust SpeedMPH,PrecipitationIn,Events,Conditions,WindDirDegrees,DateUTC
12:51 AM,32.0,27.0,82,30.42,10.0,Calm,Calm,-,N/A,,Clear,0,2013-04-18 04:51:00
1:51 AM,28.0,24.1,85,30.41,10.0,Calm,Calm,-,N/A,,Clear,0,2013-04-18 05:51:00
2:51 AM,28.9,26.1,89,30.41,10.0,Calm,Calm,-,N/A,,Clear,0,2013-04-18 06:51:00
3:51 AM,28.9,25.0,85,30.43,10.0,Calm,Calm,-,N/A,,Clear,0,2013-04-18 07:51:00
4:51 AM,30.0,26.1,85,30.43,10.0,Calm,Calm,-,N/A,,Clear,0,2013-04-18 08:51:00
5:51 AM,28.0,26.1,92,30.43,10.0,Calm,Calm,-,N/A,,Clear,0,2013-04-18 09:51:00
6:51 AM,30.9,27.0,85,30.44,10.0,Calm,Calm,-,N/A,,Partly Cloudy,0,2013-04-18 10:51:00
7:51 AM,32.0,28.9,88,30.43,10.0,Calm,Calm,-,N/A,,Overcast,0,2013-04-18 11:51:00
8:51 AM,42.1,25.0,51,30.42,10.0,South,5.8,-,N/A,,Mostly Cloudy,190,2013-04-18 12:51:00
9:51 AM,44.1,23.0,43,30.38,10.0,South,11.5,-,N/A,,Overcast,170,2013-04-18 13:51:00
10:51 AM,46.0,23.0,40,30.37,10.0,South,9.2,19.6,N/A,,Overcast,180,2013-04-18 14:51:00
11:51 AM,46.4,26.6,46,30.32,10.0,South,12.7,18.4,N/A,Rain,Light Rain,180,2013-04-18 15:51:00
12:51 PM,44.1,32.0,63,30.32,10.0,South,15.0,24.2,0.01,,Overcast,170,2013-04-18 16:51:00
1:51 PM,48.0,32.0,54,30.28,10.0,SSE,11.5,-,N/A,,Overcast,160,2013-04-18 17:51:00
2:51 PM,55.0,30.9,40,30.22,10.0,SSE,17.3,28.8,N/A,,Overcast,160,2013-04-18 18:51:00
3:51 PM,57.0,33.1,40,30.17,10.0,South,18.4,32.2,N/A,,Overcast,170,2013-04-18 19:51:00
4:51 PM,59.0,33.1,38,30.13,10.0,South,21.9,32.2,N/A,,Overcast,170,2013-04-18 20:51:00
5:51 PM,57.9,32.0,37,30.11,10.0,South,16.1,32.2,N/A,,Overcast,170,2013-04-18 21:51:00
6:51 PM,55.9,30.9,39,30.11,10.0,South,19.6,29.9,N/A,,Overcast,180,2013-04-18 22:51:00
7:51 PM,54.0,30.0,40,30.08,10.0,South,12.7,31.1,N/A,,Overcast,170,2013-04-18 23:51:00
8:51 PM,54.0,28.9,38,30.09,10.0,South,12.7,27.6,N/A,,Overcast,180,2013-04-19 00:51:00
9:51 PM,52.0,28.9,41,30.09,10.0,South,17.3,25.3,N/A,,Scattered Clouds,190,2013-04-19 01:51:00
10:51 PM,51.1,28.9,43,30.05,10.0,South,16.1,24.2,N/A,,Clear,170,2013-04-19 02:51:00
11:51 PM,51.1,30.9,46,30.04,10.0,South,10.4,18.4,N/A,,Overcast,170,2013-04-19 03:51:00